sat.trackr.live / text

‹ back to catalog

STARLINK-30713

NORAD 57952 · 2023-148T

PAYLOAD ACTIVE UNKNOWN

§ Identity

Operator
Country
US
Launch date
2023-09-25
Launch site
AFWTR
Launch vehicle
Mass (kg)
RCS (m²)

Purposes: comms

External: N2YO · Heavens-Above · Gunter

§ Orbital elements

Epoch: 2026-05-24T23:18:00.684000Z

Period
94.10 min
Inclination
53.1593°
Eccentricity
0.0001251
Mean motion
15.30208831 rev/d
Perigee alt
474.3 km
Apogee alt
476.0 km
Semi-major
6,853.3 km
B*
2.3298e-4
RAAN
29.8028°
Arg perigee
89.8001°
Mean anomaly
270.3143°
Rev number
15,010

§ Raw data

STARLINK-307131 57952U 23148T   26144.97084125  .00006549  00000+0  23298-3 0  99992 57952  53.1593  29.8028 0001251  89.8001 270.3143 15.30208831150108

JSON: /api/v1/satellites/57952 · /tle

For live sub-satellite position, see the globe view (requires WebGL).

§ Visibility from observer

Set your observer location to see the next 7 days of passes ≥ 10°. The values pass through the URL so the page stays shareable.

No JS? Fill the form by hand. The geolocation button needs JavaScript.